Location: Newark
(44.6768°N, 22.5302°E)
Time: 10:55:42
(UTC+00:00)

XW-2A - Visible Passes

Search period start: 25 June 2022 00:00
Search period end: 05 July 2022 00:00
Orbit: 398 x 413 km, 97.2° (Epoch: 25 June)

Date Brightness Start Highest point End Pass type
(mag) Time Alt. Az. Time Alt. Az. Time Alt. Az.
25 Jun ? 19:49:22 11° SSW 19:52:09 37° W 19:55:05 10° NNW visible
26 Jun ? 19:00:43 10° SE 19:03:39 39° ENE 19:06:35 10° N visible
26 Jun ? 20:35:25 10° W 20:35:45 10° W 20:36:03 10° W visible
27 Jun ? 19:44:05 11° S 19:46:54 44° W 19:49:54 10° NNW visible
28 Jun ? 18:55:31 10° SE 18:58:20 33° ENE 19:01:11 10° N visible
28 Jun ? 20:29:06 10° WSW 20:30:22 12° W 20:31:38 10° WNW visible
29 Jun ? 19:38:39 11° S 19:41:29 54° W 19:44:33 10° NNW visible
30 Jun ? 20:23:07 10° SW 20:24:50 14° W 20:26:34 10° WNW visible
01 Jul ? 19:33:04 12° S 19:35:56 67° W 19:39:01 10° NNW visible
02 Jul ? 20:17:06 10° SW 20:19:11 17° W 20:21:15 10° NW visible
03 Jul ? 19:27:20 12° S 19:30:13 83° WSW 19:33:19 10° NNW visible
04 Jul ? 20:11:00 10° SW 20:13:21 20° W 20:15:42 10° NW visible
